[[{"header":{"parameterUnit":"m.s-1","parameterCategory":1,"la1":30.2991,"la2":30.254,"lo1":-89.0895,"lo2":-89.0444,"dy":0.0017,"dx":0.0017,"nx":28,"ny":28,"refTime":"2025-09-15T03:00:00:Z","depth":0,"parameterNumber":2,"parameterNumberName":"U-component_of_WINDS"},"data":[0,0,0,0,0,0,0,0,0,0,0,0,0,0,0,0,0,0,0,0,0,0,0,0,0,0,0,0,0,0,0,0,0,0,0,0,0,0,0,0,0,0,0,0,0,0,0,0,0,0,0,0,0,0,0,0,0,0,3.3095,3.3096,0,3.3173,3.3174,3.3174,3.3118,3.3116,3.3113,3.3111,3.3187,3.3191,3.3195,0,0,0,0,0,0,0,0,0,0,0,0,0,3.2894,3.2898,3.3095,3.3096,3.3097,3.3173,3.3174,3.3175,3.3119,3.3116,3.3113,3.311,3.3185,3.319,3.3196,0,0,0,0,0,0,0,0,0,0,0,0,0,3.2978,3.29,3.3095,3.3078,3.3078,3.3172,3.3174,3.3175,3.3119,3.3116,3.3112,3.3108,3.3184,3.319,3.3196,3.331,0,0,3.3216,3.3219,0,0,0,0,0,0,0,0,3.2973,3.2985,3.308,3.308,3.3079,3.3132,3.3131,3.322,3.312,3.3103,3.3111,3.3107,3.3171,3.3179,3.3201,3.3314,3.3317,3.3217,3.3221,3.3223,3.3225,0,0,0,0,0,0,0,3.2967,3.2981,3.3126,3.3081,3.3081,3.3066,3.3073,3.3147,3.3157,3.3105,3.3101,3.3111,3.317,3.3195,3.3202,3.3318,3.3217,3.3222,3.3226,3.3229,3.3526,3.353,0,0,0,0,0,0,3.2964,3.2977,3.3123,3.3128,3.3016,3.3072,3.3081,3.3119,3.3156,3.3158,3.3114,3.3108,3.3186,3.3195,3.3205,3.3339,3.3223,3.3229,3.3233,3.3522,3.3527,3.3531,0,0,0,0,0,0,3.296,3.2977,3.312,3.3052,3.3069,3.308,3.3123,3.3122,3.3147,3.3163,3.3164,3.3138,3.3183,3.3196,3.3284,3.3341,3.3232,3.3238,3.3517,3.3524,3.3529,3.3608,0,0,0,0,0,0,3.2954,3.2976,3.302,3.3053,3.3072,3.32,3.3126,3.3126,3.3159,3.3151,3.3186,3.3188,3.3181,3.3275,3.3291,3.3347,3.3243,3.3512,3.352,3.3527,3.3601,3.3616,3.363,0,0,0,0,0,3.2947,3.3039,3.3023,3.3041,3.3128,3.3203,3.3214,3.3206,3.3163,3.3207,3.3218,3.3187,3.3333,3.3285,3.3302,3.3361,3.3509,3.3518,3.3527,3.3594,3.3613,3.363,0,0,0,0,0,0,3.3012,3.3043,3.3025,3.3131,3.3165,3.3193,3.3248,3.3226,3.3272,3.3263,3.325,3.3258,3.335,3.3365,3.3311,3.3473,3.3414,3.3427,3.3459,3.3477,3.3492,3.3485,3.3249,0,0,0,0,0,3.3039,3.3098,3.3122,3.3213,3.3231,3.3237,3.3269,3.326,3.3294,3.3307,3.3324,3.3357,3.341,3.3445,3.3495,3.3604,3.3609,3.3653,3.3668,3.368,3.369,3.3746,3.3765,3.3561,3.3561,3.3561,0,0,3.3094,3.3119,3.3157,3.3227,3.3252,3.3311,3.3249,3.3316,3.3359,3.3317,3.3401,3.3415,3.3451,3.3549,3.3593,3.3564,3.3748,3.3691,3.37,3.3704,3.3757,3.3776,3.3793,3.3567,3.3566,3.3565,0,0,3.3225,3.3252,3.3329,3.3356,3.3395,3.3398,3.3417,3.3449,3.3456,3.3541,3.351,3.3562,3.3654,3.368,3.3705,3.3847,3.3818,3.3863,3.3938,3.3993,3.4009,3.4023,3.407,3.4088,3.3874,3.3874,3.3875,0,3.3289,3.3379,3.3371,3.344,3.347,3.3437,3.3514,3.354,3.3593,3.3614,3.3581,3.3695,3.3717,3.382,3.3854,3.3877,3.3896,3.3858,3.4007,3.4021,3.4034,3.4079,3.4097,3.3879,3.3879,3.3878,3.3878,0,3.3454,3.3517,3.3575,3.3628,3.3665,3.3738,3.3739,3.3778,3.3766,3.3772,3.3858,3.3883,3.3936,3.3961,3.395,3.4062,3.4042,3.4009,3.3949,3.4059,3.4101,3.4118,3.3886,3.3885,3.3883,3.3882,0,0,3.3626,3.3674,3.3695,3.3718,3.3759,3.3806,3.3877,3.393,3.3962,3.4001,3.4057,3.4136,3.4105,3.4134,3.4126,3.4175,3.4281,3.4135,3.4135,3.4158,3.4403,3.4425,3.4446,3.4265,3.4268,3.427,3.4399,0,3.3757,3.3881,3.3875,3.399,3.4047,3.4016,3.4077,3.4108,3.4116,3.4164,3.4173,3.4228,3.4185,3.4201,3.4249,3.4258,3.433,3.4249,3.4314,3.4317,3.4303,3.4468,3.4492,3.4612,3.4416,3.4418,3.442,0,3.3925,3.397,3.409,3.4122,3.4145,3.42,3.4248,3.4295,3.4329,3.4331,3.4364,3.4348,3.4417,3.4358,3.4452,3.4397,3.4424,3.4433,3.4437,3.444,3.4373,3.4472,3.4651,3.4667,3.4447,3.4445,3.4443,0,3.4035,3.4125,3.4208,3.4229,3.4268,3.4307,3.4325,3.4356,3.4388,3.4429,3.4449,3.4499,3.4524,3.4562,3.4558,3.4516,3.4653,3.4594,3.4654,3.4654,3.4682,3.4679,3.4863,3.4705,3.4705,3.4704,3.4704,0,3.4179,3.4254,3.4258,3.4308,3.439,3.4384,3.4464,3.4478,3.4505,3.4557,3.4534,3.4582,3.4576,3.4625,3.4623,3.4699,3.4712,3.4714,3.4712,3.4714,3.4713,3.4729,3.4719,3.4709,3.4708,3.4707,3.4706,0,3.4314,3.432,3.4408,3.4439,3.4448,3.4507,3.4532,3.4579,3.4586,3.4651,3.4666,3.4676,3.4732,3.4733,3.4797,3.4795,3.4888,3.4878,3.4876,3.4873,3.4932,3.4925,3.513,3.5155,3.4983,3.4985,3.4986,0,3.4404,3.4461,3.4497,3.4531,3.4551,3.4606,3.4638,3.4634,3.4669,3.4711,3.4753,3.4807,3.4849,3.494,3.4951,3.5,3.4989,3.5057,3.4995,3.4995,3.4985,3.4981,3.4985,3.5068,3.507,3.5071,3.5073,0,3.4563,3.4563,3.4612,3.4661,3.4701,3.474,3.4776,3.4804,3.4804,3.4843,3.4901,3.4934,3.4999,3.5052,3.5099,3.5115,3.5093,3.5093,3.5108,3.5109,3.5105,3.5105,3.4905,3.5087,3.5085,3.5084,3.5084,3.5083,3.4676,3.4724,3.4757,3.4811,3.4838,3.4872,3.4917,3.493,3.4978,3.5031,3.5026,3.5089,3.512,3.518,3.5201,3.5249,3.5225,3.5249,3.5254,3.5259,3.5264,3.51,3.5258,3.5257,3.5257,3.5257,3.5256,0,3.483,3.485,3.4901,3.4951,3.4994,3.4972,3.501,3.5046,3.5103,3.5134,3.5177,3.5241,3.5292,3.5309,3.5358,3.5393,3.5384,3.5405,3.5401,3.5404,3.5284,3.5264,3.5412,3.5412,3.5412,3.5412,3.5412,3.5412,3.4915,3.4994,3.4998,3.509,3.5109,3.5171,3.5194,3.5225,3.525,3.5323,3.5366,3.5377,3.5402,3.5452,3.5497,3.5501,3.5518,3.5543,3.5542,3.5429,3.5413,3.5398,3.5379,3.5548,3.5548,3.5658,3.5659,3.566]},{"header":{"parameterUnit":"m.s-1","parameterCategory":1,"la1":30.2991,"la2":30.254,"lo1":-89.0895,"lo2":-89.0444,"dy":0.0017,"dx":0.0017,"nx":28,"ny":28,"refTime":"2025-09-15T03:00:00:Z","depth":0,"parameterNumber":3,"parameterNumberName":"V-component_of_WINDS"},"data":[0,0,0,0,0,0,0,0,0,0,0,0,0,0,0,0,0,0,0,0,0,0,0,0,0,0,0,0,0,0,0,0,0,0,0,0,0,0,0,0,0,0,0,0,0,0,0,0,0,0,0,0,0,0,0,0,0,0,1.1796,1.1797,0,1.1888,1.1889,1.189,1.1913,1.1912,1.1912,1.1911,1.2003,1.2006,1.2009,0,0,0,0,0,0,0,0,0,0,0,0,0,1.1637,1.1639,1.1796,1.1797,1.1798,1.1888,1.1889,1.189,1.1913,1.1912,1.1911,1.1911,1.2002,1.2006,1.2009,0,0,0,0,0,0,0,0,0,0,0,0,0,1.1715,1.164,1.1796,1.182,1.1824,1.1888,1.1889,1.1891,1.1913,1.1912,1.1911,1.191,1.2001,1.2006,1.201,1.2056,0,0,1.2024,1.2026,0,0,0,0,0,0,0,0,1.171,1.1721,1.1816,1.1819,1.1822,1.1888,1.1867,1.1946,1.1913,1.1879,1.1911,1.191,1.1966,1.1973,1.1992,1.206,1.2064,1.2024,1.2027,1.2029,1.203,0,0,0,0,0,0,0,1.1705,1.1717,1.1832,1.1817,1.1821,1.1826,1.1836,1.1882,1.1926,1.1882,1.1884,1.1894,1.1967,1.1988,1.1994,1.2065,1.2024,1.2028,1.2031,1.2033,1.2172,1.2173,0,0,0,0,0,0,1.1696,1.1712,1.1829,1.1835,1.1763,1.1829,1.1841,1.1868,1.1926,1.1934,1.1895,1.1895,1.198,1.1989,1.1998,1.2054,1.2029,1.2033,1.2036,1.2171,1.2173,1.2174,0,0,0,0,0,0,1.1692,1.1706,1.1826,1.1774,1.179,1.1833,1.1863,1.187,1.1891,1.1936,1.1943,1.1908,1.198,1.1991,1.2041,1.2057,1.2035,1.2039,1.217,1.2172,1.2173,1.2167,0,0,0,0,0,0,1.1687,1.1705,1.1723,1.1774,1.1792,1.1868,1.1864,1.1873,1.1899,1.19,1.195,1.1957,1.198,1.2034,1.2045,1.2063,1.2043,1.2169,1.2171,1.2173,1.2166,1.2168,1.217,0,0,0,0,0,1.1682,1.1718,1.1724,1.1738,1.1817,1.1869,1.1879,1.1906,1.19,1.1918,1.1947,1.1956,1.2053,1.2039,1.2052,1.2071,1.2168,1.217,1.2173,1.2165,1.2167,1.217,0,0,0,0,0,0,1.1668,1.1725,1.1733,1.1787,1.1823,1.1873,1.1898,1.1908,1.1946,1.1945,1.1975,1.1986,1.2033,1.2057,1.204,1.2117,1.211,1.2115,1.21,1.2103,1.2105,1.2098,1.2046,0,0,0,0,0,1.1671,1.1709,1.1757,1.18,1.1818,1.1854,1.1878,1.1895,1.1933,1.1949,1.1981,1.2017,1.2055,1.208,1.2119,1.2169,1.2179,1.2188,1.219,1.2192,1.2196,1.2222,1.2226,1.2181,1.2181,1.2181,0,0,1.1678,1.1714,1.1737,1.1798,1.1828,1.1866,1.1867,1.1908,1.1936,1.1955,1.2003,1.2027,1.207,1.2119,1.2142,1.214,1.221,1.2195,1.2195,1.2199,1.2225,1.2229,1.2233,1.2183,1.2182,1.2182,0,0,1.1711,1.1742,1.1781,1.181,1.1856,1.1879,1.1888,1.1936,1.1953,1.2002,1.2016,1.2049,1.2116,1.2145,1.2168,1.2208,1.2217,1.2219,1.223,1.2255,1.2259,1.2262,1.2275,1.228,1.2223,1.2223,1.2223,0,1.1714,1.1773,1.1799,1.1839,1.1865,1.1883,1.1921,1.1948,1.2003,1.202,1.2017,1.2099,1.2129,1.2184,1.2194,1.2212,1.2222,1.2214,1.2256,1.226,1.2263,1.2276,1.2281,1.2223,1.2223,1.2223,1.2223,0,1.1774,1.1814,1.1839,1.1892,1.192,1.1959,1.199,1.2015,1.2029,1.2052,1.21,1.2136,1.2181,1.2195,1.2209,1.2252,1.2249,1.2251,1.2245,1.2267,1.228,1.2285,1.2223,1.2223,1.2223,1.2223,0,0,1.1802,1.1867,1.1876,1.1899,1.1949,1.198,1.2018,1.2062,1.2082,1.2119,1.2151,1.2205,1.2206,1.2233,1.2249,1.2272,1.2299,1.227,1.2272,1.2274,1.2347,1.2345,1.2351,1.2305,1.2306,1.2307,1.2343,0,1.184,1.1911,1.1934,1.1992,1.2028,1.2044,1.2077,1.211,1.2132,1.2165,1.2189,1.2227,1.2227,1.2242,1.2265,1.2291,1.2314,1.2289,1.2334,1.2335,1.2323,1.2357,1.2356,1.2389,1.2348,1.2349,1.235,0,1.1895,1.1932,1.1993,1.2036,1.2052,1.2082,1.2122,1.2154,1.2191,1.2205,1.2233,1.2248,1.2287,1.2278,1.233,1.2313,1.2332,1.2347,1.2349,1.2354,1.2344,1.2363,1.24,1.2405,1.2358,1.2357,1.2357,0,1.1909,1.1973,1.2018,1.2037,1.2089,1.2109,1.2131,1.2167,1.2191,1.2226,1.2242,1.2281,1.2302,1.2331,1.2355,1.2347,1.2405,1.2399,1.2417,1.2416,1.2429,1.2428,1.2469,1.2442,1.2442,1.2442,1.2442,0,1.1949,1.1985,1.2024,1.2052,1.2092,1.2118,1.2157,1.218,1.2211,1.2242,1.2258,1.2287,1.2317,1.2348,1.2367,1.2407,1.2417,1.2428,1.2433,1.2427,1.2425,1.244,1.2438,1.2443,1.2443,1.2442,1.2442,0,1.1972,1.1999,1.2048,1.2093,1.2104,1.2132,1.2169,1.2195,1.2217,1.2256,1.2266,1.23,1.2338,1.2364,1.2413,1.2426,1.2469,1.2473,1.2456,1.2459,1.2475,1.2473,1.2528,1.2535,1.2503,1.2503,1.2503,0,1.1996,1.2024,1.207,1.2092,1.2115,1.215,1.2174,1.22,1.2224,1.2267,1.2287,1.2326,1.2359,1.2418,1.2447,1.2483,1.2488,1.2505,1.2494,1.2487,1.2488,1.2486,1.2488,1.2507,1.2507,1.2507,1.2507,0,1.2035,1.2047,1.2081,1.212,1.2149,1.218,1.2212,1.2229,1.226,1.2286,1.2325,1.235,1.2399,1.2437,1.2476,1.2497,1.2507,1.251,1.2516,1.2511,1.2499,1.2505,1.246,1.2509,1.2509,1.2509,1.2509,1.2509,1.2059,1.2084,1.212,1.2157,1.2184,1.2213,1.2239,1.2263,1.2296,1.2339,1.2351,1.2391,1.2425,1.2478,1.25,1.253,1.2529,1.2538,1.254,1.2542,1.2542,1.2494,1.2537,1.2537,1.2537,1.2537,1.2537,0,1.2098,1.2122,1.2156,1.22,1.2228,1.2235,1.2269,1.2293,1.2328,1.2359,1.239,1.2434,1.247,1.25,1.2537,1.2555,1.256,1.2564,1.2563,1.2567,1.2541,1.2532,1.2559,1.2559,1.2559,1.2559,1.2559,1.2559,1.2122,1.2165,1.218,1.2235,1.2258,1.2297,1.2316,1.2342,1.2367,1.2415,1.2445,1.2464,1.2494,1.2533,1.2566,1.2573,1.2586,1.2588,1.2597,1.2572,1.2569,1.2567,1.2559,1.2591,1.2591,1.2621,1.2621,1.2621]}]]